| time (UTC) | temp C | wind direction | speed KPH | gust KPH | rain 1hr cm | rain 24hr cm | rain mn cm | humidity % | barometer mb |
| 20260502190158 | 25 | 279 | 11.3 | 22.5 | 0.03 | 0.03 | 0.03 | 77 | 1009.2 |
| 20260502185157 | 26 | 280 | 9.7 | 20.9 | 0.00 | 0.00 | 0.00 | 64 | 1008.6 |
| 20260502184156 | 28 | 298 | 8.0 | 17.7 | 0.00 | 0.00 | 0.00 | 69 | 1008.2 |
| 20260502183155 | 28 | 251 | 1.6 | 6.4 | 0.00 | 0.00 | 0.00 | 68 | 1007.6 |
| 20260502182154 | 28 | 265 | 3.2 | 9.7 | 0.00 | 0.00 | 0.00 | 66 | 1007.6 |
| 20260502181153 | 29 | 253 | 1.6 | 9.7 | 0.00 | 0.00 | 0.00 | 64 | 1007.6 |
| 20260502180152 | 29 | 270 | 4.8 | 12.9 | 0.00 | 0.00 | 0.00 | 63 | 1007.6 |
| 20260502164011 | 29 | 253 | 1.6 | 11.3 | 0.00 | 0.00 | 0.00 | 69 | 1007.6 |
| 20260502162938 | 28 | 278 | 3.2 | 12.9 | 0.00 | 0.00 | 0.00 | 68 | 1007.9 |
| 20260502161937 | 29 | 259 | 3.2 | 12.9 | 0.00 | 0.00 | 0.00 | 67 | 1007.9 |
| 20260502160936 | 29 | 216 | 3.2 | 17.7 | 0.00 | 0.00 | 0.00 | 66 | 1007.9 |
| 20260502151932 | 28 | 200 | 4.8 | 11.3 | 0.00 | 0.00 | 0.00 | 69 | 1008.3 |
| 20260502150931 | 27 | 175 | 1.6 | 11.3 | 0.00 | 0.00 | 0.00 | 71 | 1008.3 |
| 20260502130746 | 23 | 163 | 3.2 | 12.9 | 0.00 | 0.00 | 0.00 | 91 | 1008.2 |
| 20260502123712 | 23 | 163 | 3.2 | 9.7 | 0.00 | 0.00 | 0.00 | 96 | 1007.9 |
| 20260502122640 | 22 | 157 | 3.2 | 4.8 | 0.00 | 0.00 | 0.00 | 97 | 1007.9 |
| 20260502121639 | 21 | 173 | 3.2 | 4.8 | 0.00 | 0.00 | 0.00 | 98 | 1007.9 |
| 20260502120638 | 21 | 158 | 0.0 | 3.2 | 0.00 | 0.00 | 0.00 | 99 | 1007.6 |
| 20260502115637 | 20 | 314 | 0.0 | 0.0 | 0.00 | 0.00 | 0.00 | 99 | 1007.6 |
| 20260502114636 | 20 | 314 | 0.0 | 0.0 | 0.00 | 0.00 | 0.00 | 98 | 1007.6 |
| 20260502113624 | 20 | 314 | 0.0 | 0.0 | 0.00 | 0.00 | 0.00 | 98 | 1007.6 |
| 20260502112623 | 20 | 314 | 0.0 | 0.0 | 0.00 | 0.00 | 0.00 | 98 | 1007.6 |
| 20260502111622 | 20 | 313 | 0.0 | 0.0 | 0.00 | 0.00 | 0.00 | 98 | 1007.6 |
| 20260502110550 | 20 | 314 | 0.0 | 0.0 | 0.00 | 0.00 | 0.00 | 98 | 1007.2 |
| 20260502105549 | 19 | 314 | 0.0 | 0.0 | 0.00 | 0.00 | 0.00 | 98 | 1006.9 |
| 20260502104548 | 19 | 313 | 0.0 | 0.0 | 0.00 | 0.00 | 0.00 | 98 | 1006.9 |
| 20260502103547 | 19 | 313 | 0.0 | 0.0 | 0.00 | 0.00 | 0.00 | 98 | 1006.5 |
| 20260502102515 | 19 | 313 | 0.0 | 0.0 | 0.00 | 0.00 | 0.00 | 97 | 1006.6 |
| 20260502101514 | 19 | 313 | 0.0 | 0.0 | 0.00 | 0.00 | 0.00 | 97 | 1006.9 |
| 20260502100513 | 19 | 313 | 0.0 | 0.0 | 0.00 | 0.00 | 0.00 | 97 | 1006.9 |
| 20260502091438 | 20 | 314 | 0.0 | 0.0 | 0.00 | 0.00 | 0.00 | 96 | 1007.6 |
| 20260502090437 | 20 | 313 | 0.0 | 0.0 | 0.00 | 0.00 | 0.00 | 96 | 1007.6 |
| 20260502071356 | 21 | 269 | 0.0 | 1.6 | 0.00 | 0.00 | 0.00 | 94 | 1007.6 |
| 20260502070355 | 21 | 269 | 0.0 | 1.6 | 0.00 | 0.00 | 0.00 | 94 | 1007.6 |
| 20260502065354 | 21 | 278 | 0.0 | 1.6 | 0.00 | 0.00 | 0.00 | 94 | 1007.6 |
| 20260502064354 | 21 | 278 | 0.0 | 1.6 | 0.00 | 0.00 | 0.00 | 94 | 1007.9 |
| 20260502063353 | 21 | 280 | 0.0 | 1.6 | 0.00 | 0.00 | 0.00 | 94 | 1007.9 |
| 20260502062321 | 21 | 262 | 0.0 | 1.6 | 0.00 | 0.00 | 0.00 | 94 | 1008.3 |
| 20260502061320 | 21 | 255 | 1.6 | 1.6 | 0.00 | 0.00 | 0.00 | 94 | 1008.3 |
| 20260502060319 | 21 | 255 | 0.0 | 1.6 | 0.00 | 0.00 | 0.00 | 95 | 1008.3 |
| 20260502055318 | 21 | 131 | 0.0 | 0.0 | 0.00 | 0.00 | 0.00 | 95 | 1008.3 |
| 20260502054246 | 21 | 131 | 0.0 | 0.0 | 0.00 | 0.00 | 0.00 | 95 | 1008.3 |
| 20260502053244 | 21 | 131 | 0.0 | 0.0 | 0.00 | 0.00 | 0.00 | 95 | 1008.3 |
| 20260502052244 | 21 | 131 | 0.0 | 0.0 | 0.00 | 0.00 | 0.00 | 95 | 1008.6 |
| 20260502051212 | 21 | 131 | 0.0 | 0.0 | 0.00 | 0.00 | 0.00 | 94 | 1008.6 |
| 20260502050140 | 21 | 131 | 0.0 | 0.0 | 0.00 | 0.00 | 0.00 | 94 | 1008.3 |
| 20260502045139 | 21 | 131 | 0.0 | 0.0 | 0.00 | 0.00 | 0.00 | 94 | 1008.6 |
| 20260502044138 | 21 | 131 | 0.0 | 0.0 | 0.00 | 0.00 | 0.00 | 93 | 1008.6 |
| 20260502043137 | 21 | 131 | 0.0 | 0.0 | 0.00 | 0.00 | 0.00 | 93 | 1008.3 |
| 20260502042136 | 22 | 131 | 0.0 | 0.0 | 0.00 | 0.00 | 0.00 | 92 | 1008.3 |
| 20260502041136 | 22 | 131 | 0.0 | 0.0 | 0.00 | 0.00 | 0.00 | 92 | 1008.6 |
| 20260502040135 | 22 | 131 | 0.0 | 0.0 | 0.00 | 0.00 | 0.00 | 92 | 1008.6 |
| 20260502035134 | 22 | 131 | 0.0 | 0.0 | 0.00 | 0.00 | 0.00 | 91 | 1008.6 |
| 20260502034133 | 22 | 131 | 0.0 | 0.0 | 0.00 | 0.00 | 0.00 | 90 | 1008.6 |
| 20260502033132 | 22 | 131 | 0.0 | 0.0 | 0.00 | 0.00 | 0.00 | 89 | 1008.6 |
| 20260502032131 | 23 | 131 | 0.0 | 0.0 | 0.00 | 0.00 | 0.00 | 88 | 1008.6 |
| 20260502031130 | 23 | 131 | 0.0 | 1.6 | 0.00 | 0.00 | 0.00 | 88 | 1008.6 |
| 20260502030129 | 23 | 79 | 0.0 | 1.6 | 0.00 | 0.00 | 0.00 | 87 | 1008.6 |
| 20260502025129 | 23 | 95 | 1.6 | 1.6 | 0.00 | 0.00 | 0.00 | 86 | 1008.6 |
| 20260502024128 | 23 | 71 | 0.0 | 1.6 | 0.00 | 0.00 | 0.00 | 85 | 1008.6 |
| 20260502023127 | 24 | 66 | 1.6 | 1.6 | 0.00 | 0.00 | 0.00 | 84 | 1008.6 |
| 20260502022126 | 24 | 64 | 0.0 | 1.6 | 0.00 | 0.00 | 0.00 | 84 | 1008.6 |
| 20260502021125 | 24 | 101 | 0.0 | 1.6 | 0.00 | 0.00 | 0.00 | 83 | 1008.6 |
| 20260502020124 | 25 | 101 | 0.0 | 1.6 | 0.00 | 0.00 | 0.00 | 82 | 1008.9 |
| 20260502015124 | 25 | 103 | 0.0 | 3.2 | 0.00 | 0.00 | 0.00 | 81 | 1008.9 |
| 20260502014052 | 25 | 103 | 0.0 | 3.2 | 0.00 | 0.00 | 0.00 | 80 | 1008.9 |
| 20260502013019 | 25 | 37 | 1.6 | 3.2 | 0.00 | 0.00 | 0.00 | 79 | 1008.6 |
| 20260502012018 | 25 | 17 | 1.6 | 3.2 | 0.00 | 0.00 | 0.00 | 79 | 1008.6 |
| 20260502011018 | 25 | 355 | 1.6 | 4.8 | 0.00 | 0.00 | 0.00 | 78 | 1008.6 |
| 20260502005945 | 26 | 53 | 0.0 | 3.2 | 0.00 | 0.00 | 0.00 | 78 | 1008.6 |
| 20260502004944 | 26 | 27 | 1.6 | 4.8 | 0.00 | 0.00 | 0.00 | 77 | 1008.6 |
| 20260502003944 | 26 | 45 | 1.6 | 6.4 | 0.00 | 0.00 | 0.00 | 77 | 1008.2 |
| 20260502002912 | 26 | 38 | 3.2 | 4.8 | 0.00 | 0.00 | 0.00 | 77 | 1007.9 |
| 20260502001911 | 26 | 14 | 1.6 | 6.4 | 0.00 | 0.00 | 0.00 | 76 | 1007.9 |
| 20260502000910 | 26 | 96 | 3.2 | 8.0 | 0.00 | 0.00 | 0.00 | 76 | 1007.6 |
| 20260501235909 | 26 | 14 | 3.2 | 9.7 | 0.00 | 0.00 | 0.00 | 75 | 1007.6 |
| 20260501234908 | 26 | 29 | 3.2 | 9.7 | 0.00 | 0.00 | 0.00 | 75 | 1007.6 |
| 20260501233907 | 27 | 60 | 3.2 | 9.7 | 0.00 | 0.00 | 0.00 | 75 | 1007.2 |
| 20260501232906 | 27 | 136 | 1.6 | 11.3 | 0.00 | 0.00 | 0.00 | 75 | 1007.2 |
| 20260501231905 | 27 | 117 | 3.2 | 12.9 | 0.00 | 0.00 | 0.00 | 73 | 1006.9 |
| 20260501230905 | 27 | 56 | 4.8 | 11.3 | 0.00 | 0.00 | 0.00 | 72 | 1006.9 |
| 20260501225904 | 28 | 60 | 3.2 | 11.3 | 0.00 | 0.00 | 0.00 | 70 | 1006.9 |
| 20260501224903 | 28 | 39 | 4.8 | 12.9 | 0.00 | 0.00 | 0.00 | 68 | 1006.9 |
| 20260501223902 | 29 | 44 | 4.8 | 12.9 | 0.00 | 0.00 | 0.00 | 66 | 1006.6 |
| 20260501222901 | 30 | 48 | 3.2 | 12.9 | 0.00 | 0.00 | 0.00 | 64 | 1006.6 |
| 20260501221900 | 31 | 58 | 3.2 | 11.3 | 0.00 | 0.00 | 0.00 | 57 | 1006.2 |
| 20260501220828 | 31 | 301 | 1.6 | 4.8 | 0.00 | 0.00 | 0.00 | 51 | 1006.2 |
| 20260501215828 | 31 | 309 | 0.0 | 4.8 | 0.00 | 0.00 | 0.00 | 50 | 1006.2 |
| 20260501214815 | 32 | 283 | 1.6 | 6.4 | 0.00 | 0.00 | 0.00 | 49 | 1006.2 |
| 20260501213743 | 32 | 221 | 3.2 | 6.4 | 0.00 | 0.00 | 0.00 | 49 | 1006.2 |
| 20260501212743 | 32 | 286 | 1.6 | 8.0 | 0.00 | 0.00 | 0.00 | 47 | 1006.2 |
| 20260501211742 | 32 | 192 | 3.2 | 6.4 | 0.00 | 0.00 | 0.00 | 47 | 1006.2 |
| 20260501210741 | 32 | 189 | 1.6 | 11.3 | 0.00 | 0.00 | 0.00 | 47 | 1006.2 |
| 20260501205740 | 32 | 237 | 1.6 | 11.3 | 0.00 | 0.00 | 0.00 | 47 | 1006.2 |
| 20260501204707 | 32 | 248 | 1.6 | 9.7 | 0.00 | 0.00 | 0.00 | 46 | 1006.2 |
| 20260501203706 | 32 | 290 | 1.6 | 8.0 | 0.00 | 0.00 | 0.00 | 46 | 1006.2 |
| 20260501202635 | 32 | 170 | 3.2 | 8.0 | 0.00 | 0.00 | 0.00 | 46 | 1006.6 |
| 20260501201634 | 33 | 249 | 1.6 | 6.4 | 0.00 | 0.00 | 0.00 | 45 | 1006.6 |
| 20260501200602 | 32 | 357 | 1.6 | 6.4 | 0.00 | 0.00 | 0.00 | 46 | 1006.6 |
| 20260501195601 | 32 | 300 | 3.2 | 8.0 | 0.00 | 0.00 | 0.00 | 45 | 1006.9 |
| 20260501194600 | 33 | 315 | 3.2 | 9.7 | 0.00 | 0.00 | 0.00 | 44 | 1006.9 |
| 20260501193559 | 32 | 283 | 1.6 | 9.7 | 0.00 | 0.00 | 0.00 | 47 | 1007.2 |
| 20260501192455 | 32 | 316 | 3.2 | 6.4 | 0.00 | 0.00 | 0.00 | 46 | 1007.6 |
| 20260501191455 | 32 | 250 | 1.6 | 4.8 | 0.00 | 0.00 | 0.00 | 46 | 1007.6 |